Weather at Linköping City Airport

Public forecast

Using degrees Celsius for public forecast. Weather courtesy of forecast.io.

Current aviation weather report (METAR) for Linköping City Airport

Retrieved 2021/10/25 16:20 UTC (1 hour ago):

ESSL 251620Z 20005KT 170V230 CAVOK 07/04 Q1013

Aviation forecast (TAF) for Linköping City Airport

Forecast is more than 12 hours old.

Retrieved 2019/05/16 09:33 UTC (2 years ago):

TAF ESSL 161130Z 1609/1621 09014G21KT CAVOK BECMG 1616/1618 08008G15KT RMK MIL